Temp
1 2 1 3 4 6 7 5 6 6 6 5 4 7 7 5 8 6 7 10 11 12 12 12 11 11 11 10 11 12 11 11 8 9 10 10 11 12 13 11 10 10 11 13
1 3 4 3 2 3 4 4 6 6 5 5 7 8 9 8 9 10 10 11 11 12 11 11 11 11 10 10 11 12 12 10 8 8 10 10 9 11 11 10 8 9 13 12
1 2 4 3 2 3 4 4 4 7 7 6 5 5 7 9 8 10 10 11 11 12 11 12 10 10 10 9 10 9 11 11 9 11 10 10 7 9 9 6 9 12 12 12
2 2 3 4 3 3 3 3 3 3 7 7 7 8 10 10 9 10 10 11 11 11 11 11 10 10 10 10 9 11 12 9 9 10 10 10 9 8 9 6 9 10 13 13
2 1 2 4 4 4 2 2 2 2 5 7 9 8 8 9 9 9 10 10 11 11 11 10 10 10 11 11 11 11 11 8 9 7 9 9 8 9 9 9 10 11 11 11
2 1 1 2 3 4 1 1 1 1 7 8 8 6 6 7 9 9 9 9 11 10 8 9 10 10 10 11 11 11 11 10 9 9 8 9 9 9 9 9 10 11 10 12
2 2 3 2 2 1 0 -0 0 2 7 8 7 7 7 8 8 8 9 9 10 8 7 9 10 10 10 10 10 11 10 10 10 10 9 9 10 10 10 10 10 11 11 12
2 2 2 0 0 2 1 -0 -0 1 3 6 7 7 7 8 9 9 9 8 8 7 8 10 10 10 10 9 10 10 11 11 10 9 10 11 10 9 9 9 10 11 10 11
2 2 1 2 0 -0 1 1 0 -0 1 7 4 5 6 6 9 10 8 7 7 7 10 10 9 8 10 8 8 9 9 10 10 8 8 10 10 10 10 11 9 11 11 11
2 2 2 1 0 -1 -1 0 0 -1 0 3 3 5 5 5 6 8 8 8 8 7 10 9 9 10 11 9 9 8 9 9 8 9 9 10 11 10 10 9 9 10 10 10
1 1 2 1 -1 -1 -1 -2 -1 -1 -1 1 1 2 3 5 5 6 7 8 7 8 8 9 10 10 10 10 10 10 9 9 9 9 9 8 10 9 10 10 10 10 9 9
1 1 1 1 -0 -1 -2 -2 -2 -2 -3 0 2 1 2 2 2 2 4 6 8 9 9 9 9 9 10 10 9 10 9 10 10 10 10 11 10 11 10 10 10 9 8 8
1 1 1 1 0 -1 -2 -2 -2 -2 -2 -1 0 1 2 2 3 3 3 6 6 7 6 9 9 9 10 9 10 10 10 10 10 9 12 11 11 11 9 9 8 9 8 8
1 0 0 0 0 -1 -2 -2 -2 -2 -3 -2 1 2 1 1 2 3 3 4 4 4 5 8 9 9 9 10 9 9 10 9 10 10 11 11 10 10 9 8 8 8 8 8
0 -0 -0 -1 -1 -1 -2 -2 -2 -2 -2 -1 -1 -0 4 3 2 2 3 3 2 3 6 7 8 8 8 9 8 9 10 10 10 11 11 11 11 9 7 7 7 7 7 7
0 -1 -2 -2 -1 -2 -2 -2 -2 -2 -2 -2 -1 1 1 2 3 2 2 2 2 3 5 8 8 8 8 8 8 10 9 9 9 10 8 8 7 7 7 7 7 7 7 6
-0 -1 -2 -2 -2 -2 -2 -1 -2 -2 -2 -3 -1 1 2 2 2 2 2 2 3 4 6 7 7 8 7 8 8 10 9 8 8 6 6 7 7 7 5 6 6 6 6 6
-1 -1 -2 -2 -2 -2 -2 -1 -2 -2 -3 -3 -1 1 1 2 3 4 3 3 3 4 6 5 7 7 7 7 9 9 9 7 5 5 5 5 5 5 4 5 5 5 5 5
-1 -1 -2 -2 -3 -2 -2 -2 -2 -2 -3 -2 -1 1 3 2 3 4 3 3 3 3 4 5 6 7 6 8 8 8 6 5 5 4 3 4 4 4 3 3 4 3 4 5
-2 -3 -2 -2 -2 -1 -2 -2 -2 -2 -2 -3 -1 -0 2 1 2 4 3 4 4 3 5 4 4 5 7 5 3 3 3 3 3 2 2 2 2 2 2 2 2 2 3 3
-2 -3 -2 -2 -2 -2 -2 -1 -1 -2 -1 -2 -1 -0 2 1 2 2 3 2 3 4 5 5 5 5 4 1 1 1 2 2 2 1 1 0 -0 -0 0 0 0 1 1 2
-2 -2 -2 -2 -1 -1 -0 0 0 -0 2 2 1 2 2 1 1 2 3 3 2 4 4 4 5 5 1 -0 -1 0 1 1 0 -1 -1 -0 0 0 0 0 1 1 1 2
-3 -3 -2 -2 -1 -0 1 2 2 2 2 1 1 1 2 2 3 3 3 3 3 2 3 4 6 1 -0 -1 -1 -1 -1 -1 -1 -1 -1 -1 -1 -1 -1 -0 0 0 1 1
-2 -2 -1 -1 1 1 2 2 1 0 0 0 -0 0 2 2 3 3 3 3 2 4 5 5 3 -0 -1 -1 -1 -1 -1 -1 -1 -1 -1 -1 -1 -1 -1 -1 -1 -1 -0 -0
-2 -2 -0 0 1 -1 -1 -1 -1 -0 0 0 0 1 1 2 3 2 2 4 4 4 5 5 1 0 -0 -1 -1 -1 -1 -1 -1 -1 -1 -1 -1 -1 -1 -1 -1 -1 -1 -1
-3 -2 -1 -1 -1 0 -0 -1 -1 -1 -0 -0 -0 1 2 3 2 2 3 4 5 6 4 1 0 -0 -0 -1 -1 -1 -1 -0 -1 -0 -1 -1 -1 -1 -1 -1 -1 -1 -1 -1
-3 -3 -3 -2 -2 -1 -1 -1 -1 -1 -1 0 -0 2 2 1 3 3 3 4 4 1 1 0 1 1 0 -0 -0 -0 -0 -0 -1 -1 -1 -1 -1 -1 -1 -1 -1 -1 -1 -1
Height
1490 1482 1477 1470 1460 1455 1452 1450 1456 1453 1449 1450 1448 1443 1444 1444 1440 1440 1437 1429 1421 1420 1419 1420 1420 1426 1427 1435 1432 1430 1435 1440 1451 1451 1452 1452 1448 1444 1442 1450 1452 1453 1449 1443
1491 1487 1478 1473 1464 1458 1454 1456 1456 1455 1450 1453 1447 1445 1442 1442 1437 1436 1432 1429 1428 1426 1426 1429 1429 1432 1438 1437 1436 1433 1437 1442 1453 1454 1453 1452 1451 1448 1447 1454 1458 1455 1440 1445
1491 1487 1481 1473 1470 1462 1457 1458 1459 1458 1456 1457 1456 1453 1446 1440 1441 1437 1436 1433 1431 1429 1429 1428 1434 1436 1440 1440 1439 1439 1437 1439 1443 1438 1441 1443 1455 1449 1452 1462 1455 1441 1440 1442
1491 1487 1482 1477 1471 1467 1465 1462 1466 1467 1459 1456 1455 1450 1444 1440 1441 1439 1437 1435 1435 1433 1433 1434 1437 1439 1440 1442 1442 1440 1438 1446 1447 1444 1445 1446 1448 1450 1450 1461 1452 1450 1441 1438
1493 1488 1484 1479 1473 1467 1469 1470 1470 1469 1463 1458 1453 1453 1451 1445 1443 1442 1439 1438 1437 1434 1435 1438 1438 1438 1437 1437 1442 1440 1442 1449 1448 1454 1447 1447 1450 1446 1447 1451 1450 1448 1447 1447
1497 1491 1487 1483 1476 1470 1470 1471 1471 1471 1462 1457 1455 1459 1457 1453 1447 1445 1445 1443 1439 1439 1444 1442 1440 1441 1441 1440 1441 1441 1441 1445 1447 1445 1449 1447 1445 1440 1443 1445 1445 1444 1449 1445
1496 1492 1488 1485 1484 1478 1478 1478 1475 1472 1462 1458 1459 1458 1457 1453 1451 1447 1446 1444 1441 1447 1446 1445 1443 1442 1443 1443 1444 1443 1442 1443 1444 1442 1444 1440 1436 1436 1437 1441 1441 1443 1443 1443
1495 1492 1489 1488 1484 1482 1475 1477 1480 1476 1471 1464 1459 1458 1456 1452 1449 1448 1446 1447 1447 1447 1447 1443 1441 1440 1442 1444 1444 1443 1442 1440 1443 1444 1437 1431 1435 1438 1438 1439 1439 1439 1441 1443
1495 1493 1490 1487 1486 1484 1481 1477 1478 1479 1476 1461 1465 1461 1458 1457 1448 1446 1448 1449 1448 1448 1445 1441 1442 1444 1436 1444 1447 1445 1445 1443 1444 1448 1446 1436 1432 1436 1437 1437 1439 1438 1440 1441
1492 1491 1489 1488 1486 1482 1481 1478 1476 1478 1476 1465 1465 1462 1459 1458 1456 1450 1448 1448 1448 1448 1442 1441 1439 1435 1436 1437 1438 1442 1444 1443 1445 1441 1441 1433 1432 1437 1437 1440 1444 1439 1440 1439
1489 1490 1487 1484 1484 1482 1480 1478 1476 1475 1473 1463 1461 1462 1460 1457 1456 1453 1450 1449 1447 1447 1444 1440 1435 1436 1435 1436 1434 1436 1438 1439 1442 1442 1442 1440 1435 1437 1436 1438 1438 1438 1438 1439
1486 1484 1484 1478 1477 1481 1478 1476 1475 1471 1471 1460 1456 1454 1454 1455 1455 1456 1452 1448 1446 1444 1442 1442 1438 1436 1436 1432 1436 1438 1439 1434 1433 1435 1434 1433 1434 1434 1436 1437 1437 1439 1439 1439
1483 1482 1482 1482 1476 1475 1474 1474 1473 1470 1466 1453 1447 1444 1445 1443 1446 1451 1453 1448 1447 1445 1445 1442 1439 1438 1436 1433 1432 1431 1434 1436 1435 1436 1428 1432 1433 1435 1435 1435 1436 1437 1438 1437
1477 1478 1478 1479 1475 1474 1471 1471 1470 1469 1469 1461 1443 1442 1441 1440 1441 1442 1445 1446 1446 1446 1444 1442 1439 1438 1438 1431 1433 1433 1432 1434 1431 1430 1429 1431 1431 1432 1435 1435 1435 1436 1436 1436
1471 1473 1476 1474 1472 1471 1470 1468 1466 1465 1468 1458 1445 1437 1432 1433 1435 1437 1439 1442 1446 1446 1442 1439 1437 1437 1438 1436 1437 1430 1429 1428 1429 1425 1426 1426 1429 1432 1433 1433 1434 1434 1434 1434
1466 1466 1468 1469 1467 1468 1468 1464 1461 1461 1461 1460 1449 1434 1426 1428 1429 1432 1434 1437 1441 1443 1439 1436 1434 1434 1435 1432 1428 1424 1425 1427 1426 1427 1428 1430 1431 1432 1431 1431 1431 1431 1431 1431
1461 1460 1463 1464 1463 1464 1466 1464 1460 1459 1458 1459 1450 1435 1426 1424 1427 1428 1430 1433 1436 1438 1437 1434 1432 1432 1432 1427 1423 1422 1423 1424 1426 1427 1427 1428 1429 1429 1430 1429 1429 1429 1429 1429
1453 1453 1459 1458 1458 1458 1457 1456 1456 1457 1458 1457 1450 1435 1426 1421 1421 1422 1425 1428 1432 1432 1431 1430 1429 1429 1429 1421 1416 1418 1419 1421 1424 1425 1425 1426 1426 1427 1428 1427 1426 1426 1426 1426
1447 1451 1454 1452 1453 1454 1452 1452 1452 1454 1458 1451 1445 1434 1420 1420 1416 1420 1420 1423 1427 1427 1427 1428 1428 1421 1418 1414 1415 1416 1419 1420 1422 1423 1423 1423 1424 1424 1424 1424 1424 1424 1424 1423
1446 1448 1451 1448 1449 1450 1451 1451 1451 1452 1450 1448 1440 1433 1426 1423 1417 1416 1419 1419 1420 1422 1423 1424 1422 1415 1412 1414 1415 1416 1417 1418 1419 1420 1421 1421 1421 1421 1421 1421 1421 1420 1420 1420
1445 1447 1447 1447 1448 1449 1448 1446 1446 1445 1442 1437 1430 1426 1422 1419 1418 1414 1416 1417 1418 1417 1418 1419 1416 1408 1409 1412 1414 1415 1416 1416 1417 1418 1418 1419 1418 1418 1417 1416 1416 1416 1415 1415
1442 1445 1445 1446 1447 1446 1443 1437 1437 1435 1428 1424 1421 1418 1417 1416 1414 1414 1415 1415 1418 1415 1419 1419 1410 1405 1411 1412 1414 1413 1414 1415 1415 1415 1415 1415 1414 1414 1413 1412 1411 1410 1409 1408
1441 1444 1444 1444 1444 1440 1433 1425 1422 1422 1422 1421 1419 1417 1414 1414 1413 1414 1413 1414 1416 1419 1416 1409 1403 1409 1410 1411 1412 1413 1414 1414 1414 1413 1412 1411 1410 1410 1409 1407 1406 1404 1403 1402
1440 1442 1442 1441 1433 1430 1425 1424 1423 1423 1423 1421 1418 1416 1415 1413 1413 1413 1413 1414 1416 1410 1407 1401 1404 1406 1408 1410 1411 1412 1413 1413 1412 1412 1411 1409 1407 1406 1405 1404 1402 1400 1399 1398
1438 1438 1434 1430 1429 1429 1427 1426 1425 1423 1422 1421 1419 1417 1416 1414 1414 1414 1414 1411 1406 1404 1399 1399 1402 1404 1407 1409 1410 1411 1412 1413 1412 1412 1411 1409 1407 1406 1404 1402 1400 1398 1396 1395
1436 1434 1432 1430 1430 1427 1426 1426 1424 1423 1422 1422 1421 1418 1415 1414 1415 1413 1409 1407 1398 1397 1400 1401 1402 1405 1407 1409 1411 1412 1413 1412 1412 1411 1409 1408 1407 1405 1403 1401 1399 1396 1394 1393
1433 1431 1430 1430 1429 1427 1426 1425 1424 1424 1424 1422 1421 1416 1413 1416 1412 1411 1409 1404 1401 1402 1401 1402 1404 1406 1407 1409 1411 1412 1412 1412 1411 1410 1408 1407 1406 1404 1402 1401 1398 1396 1393 1392
Wind_Speed
27 31 31 28 28 24 11 8 3 14 7 3 4 4 3 2 4 2 4 5 5 5 5 9 5 5 6 4 3 4 3 5 4 2 2 4 4 4 6 3 3 1 3 4
28 32 30 27 25 23 14 7 3 9 7 3 4 4 3 3 6 5 4 4 5 3 3 3 5 4 4 3 1 2 5 4 5 2 2 3 5 7 4 1 2 3 2 5
26 29 29 27 25 18 9 4 3 4 7 5 4 4 4 2 3 7 4 3 1 2 5 5 4 5 2 4 4 6 3 2 2 1 4 5 3 8 7 3 2 2 3 8
25 28 28 28 24 16 6 6 3 4 4 4 8 4 6 4 4 5 5 2 4 3 1 3 4 2 4 3 1 1 2 2 3 3 3 0 3 5 10 5 5 2 5 2
23 26 29 27 24 17 12 5 5 7 7 8 6 8 6 7 6 6 3 4 5 3 2 4 4 4 4 3 3 2 0 2 2 1 1 3 5 6 8 12 14 12 8 7
22 23 27 27 23 20 8 9 6 3 6 5 2 3 5 6 6 3 5 4 2 4 5 3 4 2 3 2 3 4 2 4 2 0 2 4 7 12 12 9 8 13 10 11
21 20 23 23 22 16 12 12 8 4 4 4 3 4 5 7 5 4 4 3 1 4 3 3 8 9 7 6 3 2 3 3 1 2 2 3 3 1 4 12 6 11 8 6
19 19 20 21 18 14 9 9 7 4 4 9 7 7 6 8 2 1 2 5 4 1 2 3 3 4 3 3 3 1 3 3 2 3 4 5 4 4 4 7 3 14 12 9
17 18 17 18 17 15 10 6 6 4 7 2 6 8 6 4 4 3 2 2 2 1 2 2 3 3 1 3 3 1 1 1 3 1 2 2 4 3 3 2 3 5 4 2
16 15 16 16 16 13 11 6 8 3 6 8 6 5 6 4 5 4 1 1 2 1 2 2 3 2 1 3 4 5 4 3 6 5 3 4 6 4 1 3 3 6 4 4
17 16 15 13 13 12 11 9 8 5 6 17 12 11 12 8 6 3 4 3 4 2 3 2 2 3 3 3 1 2 6 4 3 4 4 4 7 4 2 3 3 6 6 4
18 17 16 12 11 13 14 8 12 10 8 14 25 25 22 23 16 6 4 4 3 2 3 2 2 3 2 3 2 3 4 3 1 5 2 4 6 2 4 3 1 3 4 4
21 19 17 15 13 14 11 11 10 11 11 20 13 9 12 21 28 20 4 5 3 2 2 3 2 4 2 4 6 4 5 4 4 2 4 7 6 3 3 0 2 1 5 6
23 21 18 16 14 11 7 12 13 10 7 7 8 8 10 8 17 26 27 15 4 5 3 4 2 3 1 2 2 4 3 7 7 7 9 6 10 7 3 2 4 6 9 10
24 19 18 15 14 10 13 16 18 16 10 6 15 32 26 20 18 19 22 27 17 8 4 4 3 2 3 2 3 8 9 8 7 3 4 4 3 5 3 6 7 8 10 11
24 16 15 14 13 9 13 6 3 4 16 6 4 10 13 9 19 18 18 23 18 9 5 4 4 3 4 3 4 4 7 11 10 10 1 2 4 4 6 7 8 9 9 9
26 19 13 14 11 11 9 6 4 7 4 2 6 6 6 10 14 16 15 18 11 10 7 6 6 5 6 4 10 8 6 8 8 5 4 6 8 3 6 11 13 12 11 9
21 18 15 11 13 17 21 18 21 14 7 4 3 5 6 11 8 8 14 11 13 10 6 2 3 4 5 5 4 16 16 8 9 8 10 9 9 11 10 11 11 11 10 10
19 13 10 12 8 7 7 7 7 9 6 4 4 3 3 3 3 12 9 8 3 3 3 4 5 5 7 7 9 7 7 7 4 8 9 11 11 12 10 11 11 11 12 12
12 6 4 3 4 7 6 6 11 9 6 7 4 5 3 3 3 7 2 6 3 3 4 3 4 4 14 2 3 5 7 7 7 6 7 9 10 10 10 12 13 14 16 16
10 5 5 4 4 5 5 5 6 7 4 7 7 11 6 4 3 2 4 1 2 3 3 3 3 3 3 5 5 6 6 6 7 8 9 10 11 13 14 14 13 14 15 17
10 7 5 6 4 6 4 3 4 5 4 6 4 4 6 4 3 2 3 2 0 2 4 2 3 2 5 5 4 3 2 3 5 7 9 11 13 13 15 17 18 19 19 20
11 2 1 3 5 5 5 6 3 3 3 3 4 3 3 3 4 2 1 2 2 3 3 3 2 5 5 4 3 3 1 2 4 7 8 9 10 11 12 15 16 16 17 16
5 6 4 4 4 5 2 3 3 4 4 8 8 4 2 2 1 1 2 2 2 3 3 3 2 9 9 6 5 4 1 2 4 6 7 7 7 7 8 10 12 12 11 11
4 4 4 5 5 5 4 5 5 4 5 7 6 3 2 1 0 0 1 3 3 2 2 1 7 12 10 8 6 5 3 4 6 8 9 10 11 10 9 8 9 9 9 8
2 4 3 4 4 5 4 5 5 4 5 6 4 2 1 2 1 2 3 2 3 1 0 3 12 13 11 10 8 5 3 1 3 5 6 7 8 11 12 12 10 8 7 7
3 4 7 7 6 6 6 3 3 4 4 2 2 3 1 1 2 2 2 3 2 4 1 8 11 12 11 10 7 4 2 3 4 6 7 8 9 9 9 10 12 10 8 7
Wind_Direction
348 349 355 356 357 0 11 49 332 345 357 20 293 37 357 326 328 158 290 307 54 38 53 51 56 105 41 43 31 77 27 98 145 116 73 310 311 249 213 256 175 21 318 86
349 353 359 359 360 2 10 2 307 336 19 38 25 16 0 338 18 25 6 47 42 7 47 83 74 80 72 23 9 104 160 142 128 155 214 195 228 217 226 94 355 218 287 118
352 354 359 3 358 359 25 39 354 341 38 52 2 342 324 5 24 39 41 47 57 60 47 41 128 120 65 40 59 17 346 93 328 283 46 110 192 208 195 141 202 149 234 132
350 355 2 3 2 1 31 43 42 12 351 346 339 358 352 47 20 0 8 75 26 353 65 99 112 113 146 129 90 71 316 120 96 40 60 149 206 202 201 195 238 250 63 192
353 355 360 3 7 15 37 35 11 340 294 325 341 352 16 27 16 348 53 78 34 19 74 7 171 164 202 176 161 149 60 140 124 270 251 247 255 235 215 220 230 240 247 258
350 353 356 360 7 18 53 19 4 321 299 330 321 6 329 340 335 78 44 349 6 70 48 54 64 63 84 84 225 185 222 153 202 128 221 274 253 229 207 207 215 221 221 228
349 348 355 358 5 20 29 16 0 334 308 319 357 324 307 333 345 324 360 3 312 109 72 88 106 100 107 104 109 254 202 192 216 308 240 248 80 76 223 212 222 215 230 237
341 339 351 355 356 2 22 12 18 350 301 319 273 321 322 302 276 22 19 59 85 310 267 205 178 163 163 84 58 105 276 212 198 257 249 328 160 145 166 177 195 214 225 245
335 334 338 348 347 357 5 354 352 335 319 38 331 310 312 316 327 185 105 22 339 303 290 238 219 220 211 184 186 119 144 285 260 151 264 257 72 106 174 241 136 93 182 242
321 326 327 328 340 332 348 346 341 329 284 285 292 269 298 296 278 279 267 340 247 240 260 252 233 218 326 210 212 173 193 206 230 229 274 289 132 151 205 237 104 119 335 290
307 318 319 314 323 331 328 317 335 336 270 282 267 254 257 262 249 266 26 241 197 225 248 268 200 253 194 244 104 203 205 203 211 209 240 250 138 121 240 94 93 358 347 331
301 298 303 296 303 303 314 308 318 322 270 264 280 272 254 243 252 291 280 317 291 301 269 244 298 219 197 259 242 174 229 234 299 217 223 83 170 57 38 341 291 353 345 334
296 289 293 294 296 297 292 281 287 311 298 301 272 273 298 242 235 225 256 229 280 242 281 316 302 271 284 221 228 231 230 198 237 300 207 225 206 294 345 20 203 114 343 335
291 283 287 289 293 296 278 277 290 286 288 274 288 299 285 261 229 226 228 240 293 299 271 253 257 261 226 299 357 264 4 157 225 245 269 246 237 247 162 45 334 295 297 312
279 277 285 282 295 287 282 280 274 262 234 293 296 298 276 247 229 228 229 223 243 269 249 227 225 194 222 219 292 253 216 230 219 256 20 285 79 151 294 309 310 291 281 275
268 262 273 274 297 281 297 297 258 347 223 266 295 297 281 246 216 219 218 213 215 228 238 252 226 208 223 246 251 261 229 239 254 267 96 267 295 292 280 298 298 292 288 270
257 250 256 274 286 269 248 262 256 314 210 260 288 276 272 217 206 212 205 207 203 213 230 236 242 213 204 248 245 250 229 233 223 229 248 263 249 256 286 297 293 290 279 270
239 245 244 266 273 276 266 256 252 264 192 237 271 273 273 197 184 197 186 179 200 214 236 202 232 225 227 254 241 244 255 214 209 222 237 247 256 282 289 285 285 279 279 267
241 235 238 270 277 245 253 267 225 224 206 273 250 275 307 185 258 197 172 159 174 212 201 221 218 210 224 249 243 219 209 192 228 209 245 258 268 279 274 283 285 283 279 271
198 201 238 224 222 225 218 190 180 210 214 226 253 254 267 267 301 181 143 175 169 174 202 189 218 252 249 238 170 170 203 218 232 254 268 270 269 283 288 285 282 277 274 275
184 188 205 229 199 212 222 218 190 189 228 219 237 236 252 249 217 236 137 174 173 184 163 217 233 248 151 166 190 210 228 252 265 268 270 273 278 285 288 289 284 281 278 274
185 181 196 176 212 232 245 208 199 203 246 190 233 243 233 249 207 208 181 129 48 167 121 216 251 105 138 156 177 216 246 259 277 280 283 281 278 278 280 283 287 286 282 274
159 115 293 183 205 246 236 202 190 215 206 301 323 307 269 246 205 98 89 158 191 108 198 227 245 144 152 161 153 155 174 325 315 309 302 295 288 284 285 288 290 289 287 280
152 173 213 218 205 241 230 312 357 357 317 323 320 282 277 336 36 115 198 150 145 220 231 233 176 185 178 173 166 163 114 31 25 14 2 348 330 316 308 301 300 294 289 287
184 192 232 227 268 285 294 322 311 303 319 334 325 280 308 336 306 233 258 200 229 245 254 145 162 174 176 173 163 153 122 58 34 20 15 17 13 3 348 333 328 313 295 281
234 238 262 240 279 270 264 300 305 319 335 321 289 289 262 237 275 248 221 269 230 143 106 155 162 166 169 167 164 156 131 43 358 335 336 342 351 358 0 358 349 339 330 312
215 245 244 258 286 275 279 287 309 330 335 329 312 261 20 48 222 243 205 244 350 5 35 161 172 170 172 173 171 169 237 303 327 336 340 341 342 340 339 339 349 355 354 349